Starlink 1555

operational
NORAD ID: 46032 Int'l Des: 2020-055 Owner: SPXS Country: US Constellation: starlink
LEOCIRCULARSTARLINK_TYPE

关于 Starlink 1555

正在加载描述...

实时位置

正在加载3D地球...

即将过境

高度历史

Altitude vs Time

uPlot chart will show altitude changes over time

两行轨道根数

1 46032U 20055F 25304.51093225 .00009044 00000-0 62506-3 0 9997
2 46032 53.0544 346.5227 0001362 86.2297 273.8848 15.06410123289421
Epoch: Oct 31, 2025 • Age: 24 hours

当前状态

高度 547.6 km
速度 7.59 km/s
星下点 3.22°N, 120.95°E
发射日期 Aug 7, 2020
运行时间 5.2 years
类型 internet

技术详情

分类 Payload
质量 260.00 kg
干质量 248.00 kg
总质量 260.00 kg
长度 0.20 m
直径 2.80 m
跨度 9.00 m
形状 Box + pan
制造商 SPXS
平台类型 Starlink
阶段状态 In Orbit
所有者/国家 SPXS/US

大型星座

Loading constellations...